This is the latest recevied weather packets stored in our database for station/object K9NZF-1. If no packets are shown the sender has not sent any weather packets the latest 1 day(s).
| Time | Temp. | Humidity | Pressure | Rain* | Wind** | Luminosity | Snow |
|---|---|---|---|---|---|---|---|
| 1778071213 | 6.11° C | 93% | 1011.7 hPa | 0 mm | - | 172 W/m² | - |
| 1778071092 | 6.11° C | 93% | 1011.7 hPa | 0 mm | - | 70 W/m² | - |
| 1778071034 | 6.11° C | 93% | 1011.6 hPa | 0 mm | - | 93 W/m² | - |
| 1778070669 | 6.11° C | 93% | 1011.6 hPa | 0 mm | - | 49 W/m² | - |
| 1778070366 | 6.11° C | 93% | 1011.4 hPa | 0 mm | - | 44 W/m² | - |
| 1778070241 | 6.11° C | 93% | 1011.4 hPa | 0 mm | - | 47 W/m² | - |
| 1778069804 | 6.11° C | 93% | 1011.4 hPa | 0 mm | - | 81 W/m² | - |
| 1778069745 | 6.11° C | 93% | 1011.4 hPa | 0 mm | - | 86 W/m² | - |
| 1778069688 | 6.11° C | 93% | 1011.4 hPa | 0 mm | - | 90 W/m² | - |
| 1778069560 | 6.11° C | 93% | 1011.5 hPa | 0 mm | - | 102 W/m² | - |
| 1778069318 | 5.56° C | 93% | 1011.4 hPa | 0 mm | - | 88 W/m² | - |
| 1778069198 | 5.56° C | 93% | 1011.3 hPa | 0 mm | - | 63 W/m² | - |
| 1778069015 | 5.56° C | 93% | 1011.2 hPa | 0 mm | - | 60 W/m² | - |
| 1778068468 | 5.56° C | 93% | 1011.1 hPa | 0 mm | - | 60 W/m² | - |
| 1778068409 | 5° C | 93% | 1011 hPa | 0 mm | - | 53 W/m² | - |
| 1778068170 | 5° C | 93% | 1010.8 hPa | 0 mm | - | 35 W/m² | - |
| 1778067976 | 5° C | 93% | 1010.6 hPa | 0 mm | - | 32 W/m² | - |
| 1778067850 | 5° C | 93% | 1010.6 hPa | 0 mm | - | 32 W/m² | - |
| 1778067795 | 5° C | 93% | 1010.6 hPa | 0 mm | - | 32 W/m² | - |
| 1778067730 | 5° C | 92% | 1010.6 hPa | 0 mm | - | 30 W/m² | - |
| 1778067120 | 5.56° C | 93% | 1010.5 hPa | 0 mm | - | 19 W/m² | - |
| 1778066931 | 5.56° C | 93% | 1010.5 hPa | 0 mm | - | 18 W/m² | - |
| 1778066873 | 5.56° C | 93% | 1010.4 hPa | 0 mm | - | 18 W/m² | - |
| 1778066746 | 5.56° C | 93% | 1010.4 hPa | 0 mm | - | 19 W/m² | - |
| 1778066629 | 5.56° C | 93% | 1010.4 hPa | 0 mm | - | 19 W/m² | - |
* Rain latest hour (hover to see other rain measurements)
** Current wind speed in m/s (hover to see current wind gust speed)